Station Historical Data
Daily Summary for March 17, 2017 Units:  English    Metric   Both
« Previous Day
Next Day »
Daily Weekly Monthly Yearly Custom
  High: Low: Average:
Temperature: 70.2 °F 50.3 °F 58 °F
Dew Point: 47.6 °F 40.3 °F 44.4 °F
Humidity: 81 % 39 % 62 %
Wind Speed: 13.0 mph 0.0 mph 1.8 mph
Wind Gust: 16.0 mph - -
Wind:- - SSE
Pressure: 30.16 in 30.02 in -
Precipitation: 0.00 in    
Historical Graphs
 
 
Tabular Data for March 17, 2017
Time Temperature Dew Point Pressure Wind Wind Speed Wind Gust Humidity Rainfall Rate (Hourly) solar
00:01 52.4 °F 46.8 °F 30.15 in Calm   5.0 mph 81 % 0.00 in 0.00 W/m2
00:06 52.4 °F 46.8 °F 30.15 in Calm   5.0 mph 81 % 0.00 in 0.00 W/m2
00:11 52.4 °F 46.8 °F 30.15 in East 1.0 mph 7.0 mph 81 % 0.00 in 0.00 W/m2
00:16 52.5 °F 46.8 °F 30.16 in ESE 1.0 mph 5.0 mph 81 % 0.00 in 0.00 W/m2
00:21 52.6 °F 46.6 °F 30.15 in Calm     80 % 0.00 in 0.00 W/m2
00:26 52.6 °F 46.6 °F 30.15 in Calm     80 % 0.00 in 0.00 W/m2
00:31 52.6 °F 46.6 °F 30.15 in ESE 1.0 mph 7.0 mph 80 % 0.00 in 0.00 W/m2
00:36 52.6 °F 46.6 °F 30.15 in Calm   5.0 mph 80 % 0.00 in 0.00 W/m2
00:41 52.6 °F 46.3 °F 30.15 in East 1.0 mph 1.0 mph 79 % 0.00 in 0.00 W/m2
00:46 52.6 °F 46.0 °F 30.15 in East 2.0 mph 2.0 mph 78 % 0.00 in 0.00 W/m2
00:51 52.7 °F 46.0 °F 30.15 in Calm     78 % 0.00 in 0.00 W/m2
00:56 52.7 °F 46.0 °F 30.15 in Calm   1.0 mph 78 % 0.00 in 0.00 W/m2
01:01 52.6 °F 45.6 °F 30.15 in East 1.0 mph 1.0 mph 77 % 0.00 in 0.00 W/m2
01:06 52.6 °F 45.6 °F 30.15 in ESE 4.0 mph 4.0 mph 77 % 0.00 in 0.00 W/m2
01:11 52.6 °F 45.6 °F 30.15 in ESE 4.0 mph 4.0 mph 77 % 0.00 in 0.00 W/m2
01:17 52.5 °F 45.5 °F 30.15 in ESE 1.0 mph 2.0 mph 77 % 0.00 in 0.00 W/m2
01:22 52.4 °F 45.1 °F 30.15 in Calm   5.0 mph 76 % 0.00 in 0.00 W/m2
01:27 52.4 °F 45.1 °F 30.15 in East 1.0 mph 2.0 mph 76 % 0.00 in 0.00 W/m2
01:32 52.4 °F 45.1 °F 30.15 in East 5.0 mph 6.0 mph 76 % 0.00 in 0.00 W/m2
01:37 52.3 °F 45.3 °F 30.15 in East 6.0 mph 6.0 mph 77 % 0.00 in 0.00 W/m2
01:42 52.3 °F 45.0 °F 30.15 in ESE 1.0 mph 4.0 mph 76 % 0.00 in 0.00 W/m2
01:47 52.2 °F 44.9 °F 30.15 in Calm   5.0 mph 76 % 0.00 in 0.00 W/m2
01:52 52.2 °F 45.2 °F 30.15 in Calm   6.0 mph 77 % 0.00 in 0.00 W/m2
01:57 52.1 °F 45.1 °F 30.15 in ESE 2.0 mph 5.0 mph 77 % 0.00 in 0.00 W/m2
02:02 52.1 °F 45.1 °F 30.15 in East 1.0 mph 7.0 mph 77 % 0.00 in 0.00 W/m2
02:07 52.0 °F 45.0 °F 30.15 in Calm   7.0 mph 77 % 0.00 in 0.00 W/m2
02:12 51.9 °F 44.9 °F 30.14 in ESE 2.0 mph 6.0 mph 77 % 0.00 in 0.00 W/m2
02:17 51.8 °F 44.8 °F 30.15 in Calm   7.0 mph 77 % 0.00 in 0.00 W/m2
02:22 51.8 °F 44.5 °F 30.15 in Calm   5.0 mph 76 % 0.00 in 0.00 W/m2
02:27 51.7 °F 44.4 °F 30.15 in East 2.0 mph 5.0 mph 76 % 0.00 in 0.00 W/m2
02:32 51.7 °F 44.4 °F 30.15 in Calm   6.0 mph 76 % 0.00 in 0.00 W/m2
02:33 51.6 °F 44.3 °F 30.15 in ESE 4.0 mph 7.0 mph 76 % 0.00 in 0.00 W/m2
02:38 51.6 °F 44.0 °F 30.15 in Calm   4.0 mph 75 % 0.00 in 0.00 W/m2
02:48 51.5 °F 43.8 °F 30.14 in ESE 4.0 mph 4.0 mph 75 % 0.00 in 0.00 W/m2
02:53 51.5 °F 43.8 °F 30.14 in East 4.0 mph 5.0 mph 75 % 0.00 in 0.00 W/m2
02:58 51.4 °F 43.8 °F 30.14 in ESE 2.0 mph 5.0 mph 75 % 0.00 in 0.00 W/m2
03:03 51.4 °F 43.8 °F 30.14 in East 1.0 mph 5.0 mph 75 % 0.00 in 0.00 W/m2
03:08 51.3 °F 43.7 °F 30.13 in Calm   13.0 mph 75 % 0.00 in 0.00 W/m2
03:13 51.2 °F 43.2 °F 30.13 in ESE 1.0 mph 10.0 mph 74 % 0.00 in 0.00 W/m2
03:18 51.1 °F 43.1 °F 30.13 in Calm   7.0 mph 74 % 0.00 in 0.00 W/m2
03:23 51.1 °F 43.1 °F 30.13 in ESE 2.0 mph 7.0 mph 74 % 0.00 in 0.00 W/m2
03:28 51.0 °F 42.7 °F 30.13 in ESE 6.0 mph 6.0 mph 73 % 0.00 in 0.00 W/m2
03:33 51.0 °F 43.0 °F 30.13 in East 2.0 mph 6.0 mph 74 % 0.00 in 0.00 W/m2
03:38 51.0 °F 43.0 °F 30.13 in Calm   12.0 mph 74 % 0.00 in 0.00 W/m2
03:43 50.9 °F 42.9 °F 30.12 in ESE 4.0 mph 8.0 mph 74 % 0.00 in 0.00 W/m2
03:48 50.8 °F 42.5 °F 30.12 in ESE 2.0 mph 16.0 mph 73 % 0.00 in 0.00 W/m2
03:53 50.8 °F 42.5 °F 30.12 in Calm   6.0 mph 73 % 0.00 in 0.00 W/m2
03:58 50.7 °F 42.4 °F 30.12 in ESE 5.0 mph 9.0 mph 73 % 0.00 in 0.00 W/m2
04:03 50.7 °F 42.4 °F 30.12 in East 2.0 mph 16.0 mph 73 % 0.00 in 0.00 W/m2
04:08 50.6 °F 42.3 °F 30.12 in Calm   12.0 mph 73 % 0.00 in 0.00 W/m2
04:13 50.6 °F 41.9 °F 30.12 in Calm   7.0 mph 72 % 0.00 in 0.00 W/m2
04:18 50.5 °F 41.8 °F 30.12 in ESE 2.0 mph 4.0 mph 72 % 0.00 in 0.00 W/m2
04:23 50.6 °F 41.9 °F 30.12 in ESE 6.0 mph 6.0 mph 72 % 0.00 in 0.00 W/m2
04:28 50.6 °F 41.9 °F 30.12 in East 6.0 mph 6.0 mph 72 % 0.00 in 0.00 W/m2
04:33 50.5 °F 41.5 °F 30.12 in ESE 2.0 mph 5.0 mph 71 % 0.00 in 0.00 W/m2
04:38 50.6 °F 41.9 °F 30.12 in Calm   14.0 mph 72 % 0.00 in 0.00 W/m2
04:43 50.6 °F 41.6 °F 30.12 in Calm   6.0 mph 71 % 0.00 in 0.00 W/m2
04:48 50.5 °F 41.5 °F 30.11 in ESE 1.0 mph 6.0 mph 71 % 0.00 in 0.00 W/m2
04:53 50.6 °F 41.2 °F 30.12 in East 1.0 mph 14.0 mph 70 % 0.00 in 0.00 W/m2
04:58 50.6 °F 41.6 °F 30.12 in Calm   11.0 mph 71 % 0.00 in 0.00 W/m2
05:03 50.7 °F 41.7 °F 30.12 in ESE 1.0 mph 7.0 mph 71 % 0.00 in 0.00 W/m2
05:08 50.7 °F 41.3 °F 30.12 in Calm   15.0 mph 70 % 0.00 in 0.00 W/m2
05:13 50.8 °F 41.4 °F 30.11 in ESE 12.0 mph 14.0 mph 70 % 0.00 in 0.00 W/m2
05:18 50.8 °F 41.4 °F 30.12 in Calm   7.0 mph 70 % 0.00 in 0.00 W/m2
05:23 50.8 °F 41.0 °F 30.11 in ESE 1.0 mph 13.0 mph 69 % 0.00 in 0.00 W/m2
05:24 50.8 °F 41.0 °F 30.11 in Calm   13.0 mph 69 % 0.00 in 0.00 W/m2
05:29 50.8 °F 41.0 °F 30.11 in ESE 8.0 mph 15.0 mph 69 % 0.00 in 0.00 W/m2
05:34 50.8 °F 41.0 °F 30.11 in Calm   14.0 mph 69 % 0.00 in 0.00 W/m2
05:39 50.8 °F 41.0 °F 30.11 in Calm   16.0 mph 69 % 0.00 in 0.00 W/m2
05:44 50.8 °F 41.0 °F 30.11 in Calm   16.0 mph 69 % 0.00 in 0.00 W/m2
05:49 50.8 °F 41.0 °F 30.11 in East 8.0 mph 14.0 mph 69 % 0.00 in 0.00 W/m2
05:54 50.8 °F 41.0 °F 30.11 in East 2.0 mph 15.0 mph 69 % 0.00 in 0.00 W/m2
05:59 50.8 °F 41.0 °F 30.11 in East 4.0 mph 16.0 mph 69 % 0.00 in 0.00 W/m2
06:04 50.8 °F 41.0 °F 30.11 in East 1.0 mph 12.0 mph 69 % 0.00 in 0.00 W/m2
06:09 50.8 °F 41.0 °F 30.11 in East 10.0 mph 15.0 mph 69 % 0.00 in 0.00 W/m2
06:14 50.7 °F 40.5 °F 30.11 in East 13.0 mph 14.0 mph 68 % 0.00 in 0.00 W/m2
06:19 50.7 °F 40.5 °F 30.11 in East 11.0 mph 14.0 mph 68 % 0.00 in 0.00 W/m2
06:24 50.7 °F 40.5 °F 30.11 in East 13.0 mph 13.0 mph 68 % 0.00 in 0.00 W/m2
06:29 50.7 °F 40.9 °F 30.11 in ESE 1.0 mph 15.0 mph 69 % 0.00 in 0.00 W/m2
06:34 50.7 °F 40.5 °F 30.11 in ESE 2.0 mph 11.0 mph 68 % 0.00 in 0.00 W/m2
06:39 50.7 °F 40.5 °F 30.11 in Calm   13.0 mph 68 % 0.00 in 0.00 W/m2
06:44 50.6 °F 40.4 °F 30.11 in Calm   15.0 mph 68 % 0.00 in 0.00 W/m2
06:49 50.6 °F 40.4 °F 30.11 in East 1.0 mph 12.0 mph 68 % 0.00 in 0.00 W/m2
06:54 50.6 °F 40.4 °F 30.11 in Calm   14.0 mph 68 % 0.00 in 0.00 W/m2
06:59 50.6 °F 40.4 °F 30.11 in ESE 2.0 mph 8.0 mph 68 % 0.00 in 0.00 W/m2
07:04 50.6 °F 40.4 °F 30.11 in East 2.0 mph 13.0 mph 68 % 0.00 in 0.00 W/m2
07:09 50.6 °F 40.4 °F 30.11 in SE 7.0 mph 14.0 mph 68 % 0.00 in 5.00 W/m2
07:14 50.5 °F 40.7 °F 30.11 in ESE 1.0 mph 3.0 mph 69 % 0.00 in 7.00 W/m2
07:19 50.5 °F 40.3 °F 30.12 in ESE 1.0 mph 9.0 mph 68 % 0.00 in 9.00 W/m2
07:24 50.5 °F 40.7 °F 30.12 in Calm   14.0 mph 69 % 0.00 in 12.00 W/m2
07:30 50.5 °F 40.7 °F 30.12 in Calm   9.0 mph 69 % 0.00 in 14.00 W/m2
07:35 50.5 °F 40.7 °F 30.12 in ESE 4.0 mph 14.0 mph 69 % 0.00 in 18.00 W/m2
07:40 50.5 °F 41.1 °F 30.12 in ESE 1.0 mph 14.0 mph 70 % 0.00 in 28.00 W/m2
07:45 50.5 °F 41.1 °F 30.12 in East 1.0 mph 9.0 mph 70 % 0.00 in 44.00 W/m2
07:50 50.4 °F 41.0 °F 30.12 in East 1.0 mph 12.0 mph 70 % 0.00 in 56.00 W/m2
07:55 50.4 °F 41.0 °F 30.12 in ESE 4.0 mph 6.0 mph 70 % 0.00 in 72.00 W/m2
08:00 50.3 °F 41.3 °F 30.12 in Calm   8.0 mph 71 % 0.00 in 90.00 W/m2
08:05 50.3 °F 40.9 °F 30.12 in ESE 4.0 mph 11.0 mph 70 % 0.00 in 105.00 W/m2
08:10 50.3 °F 40.9 °F 30.12 in ESE 1.0 mph 9.0 mph 70 % 0.00 in 125.00 W/m2
08:15 50.3 °F 40.9 °F 30.12 in East 13.0 mph 13.0 mph 70 % 0.00 in 148.00 W/m2
08:25 50.5 °F 41.1 °F 30.12 in ESE 5.0 mph 11.0 mph 70 % 0.00 in 195.00 W/m2
08:30 50.6 °F 41.6 °F 30.13 in Calm   8.0 mph 71 % 0.00 in 218.00 W/m2
08:35 50.8 °F 42.1 °F 30.12 in East 4.0 mph 7.0 mph 72 % 0.00 in 237.00 W/m2
08:40 50.9 °F 42.2 °F 30.13 in ESE 1.0 mph 8.0 mph 72 % 0.00 in 265.00 W/m2
08:45 51.1 °F 41.7 °F 30.13 in Calm   9.0 mph 70 % 0.00 in 283.00 W/m2
08:50 51.3 °F 42.2 °F 30.13 in Calm   8.0 mph 71 % 0.00 in 301.00 W/m2
08:55 51.5 °F 42.4 °F 30.13 in East 7.0 mph 12.0 mph 71 % 0.00 in 325.00 W/m2
09:00 51.6 °F 42.5 °F 30.13 in ESE 5.0 mph 8.0 mph 71 % 0.00 in 343.00 W/m2
09:05 51.9 °F 42.8 °F 30.13 in Calm   6.0 mph 71 % 0.00 in 360.00 W/m2
09:07 52.0 °F 42.9 °F 30.13 in Calm   4.0 mph 71 % 0.00 in 366.00 W/m2
09:12 52.2 °F 43.5 °F 30.13 in ESE 4.0 mph 6.0 mph 72 % 0.00 in 383.00 W/m2
09:17 52.5 °F 43.8 °F 30.12 in Calm   4.0 mph 72 % 0.00 in 401.00 W/m2
09:27 53.0 °F 44.2 °F 30.12 in Calm   6.0 mph 72 % 0.00 in 431.00 W/m2
09:32 53.3 °F 44.5 °F 30.12 in ESE 2.0 mph 7.0 mph 72 % 0.00 in 448.00 W/m2
09:37 53.6 °F 44.4 °F 30.12 in ESE 2.0 mph 7.0 mph 71 % 0.00 in 462.00 W/m2
09:42 53.9 °F 44.7 °F 30.12 in Calm   11.0 mph 71 % 0.00 in 478.00 W/m2
09:47 54.3 °F 44.7 °F 30.12 in ESE 4.0 mph 9.0 mph 70 % 0.00 in 492.00 W/m2
09:52 54.7 °F 44.0 °F 30.12 in Calm   6.0 mph 67 % 0.00 in 510.00 W/m2
09:57 55.1 °F 44.3 °F 30.12 in East 2.0 mph 6.0 mph 67 % 0.00 in 526.00 W/m2
10:02 55.7 °F 44.5 °F 30.12 in ESE 5.0 mph 5.0 mph 66 % 0.00 in 538.00 W/m2
10:07 56.1 °F 44.5 °F 30.12 in SE 2.0 mph 8.0 mph 65 % 0.00 in 550.00 W/m2
10:12 56.6 °F 44.2 °F 30.12 in Calm   2.0 mph 63 % 0.00 in 564.00 W/m2
10:17 57.1 °F 45.5 °F 30.12 in Calm   1.0 mph 65 % 0.00 in 578.00 W/m2
10:22 57.5 °F 45.8 °F 30.12 in Calm   7.0 mph 65 % 0.00 in 594.00 W/m2
10:27 57.9 °F 44.1 °F 30.12 in Calm   6.0 mph 60 % 0.00 in 606.00 W/m2
10:32 58.4 °F 44.1 °F 30.12 in Calm   2.0 mph 59 % 0.00 in 621.00 W/m2
10:37 58.8 °F 45.0 °F 30.12 in Calm   2.0 mph 60 % 0.00 in 633.00 W/m2
10:42 59.3 °F 45.0 °F 30.12 in ESE 5.0 mph 5.0 mph 59 % 0.00 in 645.00 W/m2
10:47 59.8 °F 46.3 °F 30.12 in Calm   8.0 mph 61 % 0.00 in 656.00 W/m2
10:52 60.1 °F 45.3 °F 30.12 in SSW 4.0 mph 8.0 mph 58 % 0.00 in 668.00 W/m2
10:57 60.5 °F 43.8 °F 30.12 in SSW 1.0 mph 4.0 mph 54 % 0.00 in 677.00 W/m2
11:02 60.8 °F 42.1 °F 30.12 in South 1.0 mph 4.0 mph 50 % 0.00 in 691.00 W/m2
11:07 61.2 °F 41.4 °F 30.12 in South 4.0 mph 6.0 mph 48 % 0.00 in 700.00 W/m2
11:12 61.6 °F 42.8 °F 30.11 in South 5.0 mph 6.0 mph 50 % 0.00 in 710.00 W/m2
11:17 61.9 °F 43.6 °F 30.11 in South 1.0 mph 6.0 mph 51 % 0.00 in 715.00 W/m2
11:22 62.3 °F 44.0 °F 30.11 in South 4.0 mph 6.0 mph 51 % 0.00 in 728.00 W/m2
11:27 62.7 °F 43.8 °F 30.11 in South 1.0 mph 4.0 mph 50 % 0.00 in 735.00 W/m2
11:32 63.1 °F 43.1 °F 30.11 in SSE 1.0 mph 6.0 mph 48 % 0.00 in 742.00 W/m2
11:37 63.6 °F 42.5 °F 30.11 in South 5.0 mph 5.0 mph 46 % 0.00 in 752.00 W/m2
11:42 64.2 °F 43.6 °F 30.11 in South 4.0 mph 6.0 mph 47 % 0.00 in 759.00 W/m2
11:47 64.6 °F 45.0 °F 30.11 in Calm   7.0 mph 49 % 0.00 in 766.00 W/m2
11:52 65.0 °F 44.3 °F 30.11 in Calm   7.0 mph 47 % 0.00 in 773.00 W/m2
11:57 65.6 °F 42.5 °F 30.11 in SW 5.0 mph 10.0 mph 43 % 0.00 in 779.00 W/m2
12:02 66.0 °F 43.5 °F 30.11 in WSW 1.0 mph 10.0 mph 44 % 0.00 in 782.00 W/m2
12:07 66.5 °F 42.1 °F 30.11 in SW 3.0 mph 10.0 mph 41 % 0.00 in 793.00 W/m2
12:12 66.8 °F 43.6 °F 30.11 in SSW 2.0 mph 3.0 mph 43 % 0.00 in 800.00 W/m2
12:17 67.1 °F 42.6 °F 30.10 in Calm   6.0 mph 41 % 0.00 in 791.00 W/m2
12:22 67.5 °F 44.8 °F 30.10 in SW 2.0 mph 7.0 mph 44 % 0.00 in 802.00 W/m2
12:27 67.9 °F 46.4 °F 30.10 in SW 2.0 mph 5.0 mph 46 % 0.00 in 809.00 W/m2
12:33 68.1 °F 47.1 °F 30.10 in WSW 5.0 mph 10.0 mph 47 % 0.00 in 809.00 W/m2
12:38 68.0 °F 47.0 °F 30.10 in SW 2.0 mph 4.0 mph 47 % 0.00 in 812.00 W/m2
12:43 68.0 °F 47.6 °F 30.10 in Calm   2.0 mph 48 % 0.00 in 816.00 W/m2
12:48 68.0 °F 47.0 °F 30.10 in SW 2.0 mph 4.0 mph 47 % 0.00 in 814.00 W/m2
12:53 68.1 °F 46.6 °F 30.10 in WSW 1.0 mph 5.0 mph 46 % 0.00 in 819.00 W/m2
12:58 68.1 °F 46.6 °F 30.09 in SW 1.0 mph 6.0 mph 46 % 0.00 in 817.00 W/m2
13:03 68.1 °F 46.6 °F 30.09 in WSW 1.0 mph 3.0 mph 46 % 0.00 in 816.00 W/m2
13:08 68.1 °F 47.1 °F 30.09 in SW 4.0 mph 4.0 mph 47 % 0.00 in 816.00 W/m2
13:13 68.3 °F 47.3 °F 30.09 in SW 5.0 mph 5.0 mph 47 % 0.00 in 816.00 W/m2
13:18 68.4 °F 46.8 °F 30.09 in WSW 2.0 mph 9.0 mph 46 % 0.00 in 816.00 W/m2
13:23 68.4 °F 45.7 °F 30.09 in WSW 2.0 mph 7.0 mph 44 % 0.00 in 816.00 W/m2
13:28 68.4 °F 46.2 °F 30.08 in Calm   2.0 mph 45 % 0.00 in 810.00 W/m2
13:33 68.6 °F 47.0 °F 30.08 in SSW 6.0 mph 6.0 mph 46 % 0.00 in 812.00 W/m2
13:38 68.8 °F 47.2 °F 30.08 in WNW 2.0 mph 7.0 mph 46 % 0.00 in 807.00 W/m2
13:48 69.1 °F 46.3 °F 30.07 in Calm   9.0 mph 44 % 0.00 in 802.00 W/m2
13:53 69.2 °F 45.8 °F 30.07 in West 3.0 mph 8.0 mph 43 % 0.00 in 798.00 W/m2
13:58 69.3 °F 45.9 °F 30.06 in West 1.0 mph 1.0 mph 43 % 0.00 in 795.00 W/m2
14:03 69.5 °F 46.7 °F 30.06 in SW 1.0 mph 8.0 mph 44 % 0.00 in 786.00 W/m2
14:08 69.6 °F 45.5 °F 30.06 in West 1.0 mph 7.0 mph 42 % 0.00 in 784.00 W/m2
14:13 69.5 °F 44.8 °F 30.06 in Calm   1.0 mph 41 % 0.00 in 779.00 W/m2
14:18 69.3 °F 45.9 °F 30.06 in SSW 7.0 mph 9.0 mph 43 % 0.00 in 772.00 W/m2
14:23 69.3 °F 46.5 °F 30.06 in SW 6.0 mph 10.0 mph 44 % 0.00 in 766.00 W/m2
14:28 69.6 °F 44.9 °F 30.05 in WSW 3.0 mph 4.0 mph 41 % 0.00 in 761.00 W/m2
14:33 69.8 °F 45.1 °F 30.05 in West 5.0 mph 6.0 mph 41 % 0.00 in 752.00 W/m2
14:38 69.7 °F 45.0 °F 30.05 in West 2.0 mph 3.0 mph 41 % 0.00 in 744.00 W/m2
14:43 69.8 °F 46.9 °F 30.05 in Calm   4.0 mph 44 % 0.00 in 731.00 W/m2
14:48 70.0 °F 45.9 °F 30.04 in Calm   1.0 mph 42 % 0.00 in 731.00 W/m2
14:53 70.1 °F 46.6 °F 30.05 in WSW 6.0 mph 10.0 mph 43 % 0.00 in 724.00 W/m2
14:58 70.2 °F 45.4 °F 30.05 in Calm   5.0 mph 41 % 0.00 in 715.00 W/m2
15:03 70.2 °F 46.7 °F 30.04 in West 6.0 mph 9.0 mph 43 % 0.00 in 707.00 W/m2
15:08 70.1 °F 45.3 °F 30.04 in Calm   3.0 mph 41 % 0.00 in 696.00 W/m2
15:13 69.9 °F 44.5 °F 30.04 in Calm   11.0 mph 40 % 0.00 in 687.00 W/m2
15:18 69.8 °F 43.8 °F 30.04 in West 5.0 mph 8.0 mph 39 % 0.00 in 666.00 W/m2
15:23 69.7 °F 43.7 °F 30.04 in Calm   9.0 mph 39 % 0.00 in 661.00 W/m2
15:28 69.7 °F 44.3 °F 30.04 in Calm   7.0 mph 40 % 0.00 in 654.00 W/m2
15:33 69.6 °F 45.5 °F 30.04 in West 8.0 mph 8.0 mph 42 % 0.00 in 633.00 W/m2
15:38 69.5 °F 44.2 °F 30.04 in Calm   7.0 mph 40 % 0.00 in 622.00 W/m2
15:44 69.4 °F 44.7 °F 30.03 in Calm   3.0 mph 41 % 0.00 in 601.00 W/m2
15:48 69.3 °F 44.6 °F 30.04 in Calm   8.0 mph 41 % 0.00 in 592.00 W/m2
15:53 69.3 °F 45.2 °F 30.03 in Calm   4.0 mph 42 % 0.00 in 575.00 W/m2
15:59 69.3 °F 45.2 °F 30.03 in West 2.0 mph 4.0 mph 42 % 0.00 in 573.00 W/m2
16:04 69.3 °F 44.6 °F 30.04 in WNW 1.0 mph 5.0 mph 41 % 0.00 in 547.00 W/m2
16:09 69.2 °F 44.5 °F 30.04 in West 3.0 mph 4.0 mph 41 % 0.00 in 548.00 W/m2
16:14 69.1 °F 44.4 °F 30.03 in SW 3.0 mph 9.0 mph 41 % 0.00 in 536.00 W/m2
16:19 69.0 °F 45.6 °F 30.03 in West 2.0 mph 8.0 mph 43 % 0.00 in 510.00 W/m2
16:24 69.0 °F 43.7 °F 30.03 in West 7.0 mph 7.0 mph 40 % 0.00 in 501.00 W/m2
16:29 68.9 °F 43.0 °F 30.03 in West 3.0 mph 5.0 mph 39 % 0.00 in 494.00 W/m2
16:30 68.9 °F 43.6 °F 30.03 in WSW 1.0 mph 7.0 mph 40 % 0.00 in 490.00 W/m2
16:35 68.8 °F 43.5 °F 30.03 in Calm   2.0 mph 40 % 0.00 in 468.00 W/m2
16:40 68.8 °F 44.8 °F 30.03 in Calm   8.0 mph 42 % 0.00 in 436.00 W/m2
16:45 68.6 °F 43.3 °F 30.03 in Calm   8.0 mph 40 % 0.00 in 413.00 W/m2
16:50 68.4 °F 42.5 °F 30.02 in SW 1.0 mph 9.0 mph 39 % 0.00 in 369.00 W/m2
16:55 68.3 °F 43.1 °F 30.03 in WSW 2.0 mph 8.0 mph 40 % 0.00 in 339.00 W/m2
17:00 68.1 °F 42.2 °F 30.02 in Calm   8.0 mph 39 % 0.00 in 357.00 W/m2
17:05 67.9 °F 43.4 °F 30.02 in SW 4.0 mph 8.0 mph 41 % 0.00 in 323.00 W/m2
17:10 67.8 °F 42.6 °F 30.02 in Calm   7.0 mph 40 % 0.00 in 359.00 W/m2
17:15 67.7 °F 42.5 °F 30.02 in SW 1.0 mph 3.0 mph 40 % 0.00 in 229.00 W/m2
17:20 67.5 °F 41.7 °F 30.02 in Calm   2.0 mph 39 % 0.00 in 155.00 W/m2
17:25 67.4 °F 42.3 °F 30.02 in SW 1.0 mph 2.0 mph 40 % 0.00 in 151.00 W/m2
17:30 67.3 °F 42.2 °F 30.02 in Calm   6.0 mph 40 % 0.00 in 148.00 W/m2
17:35 67.1 °F 43.3 °F 30.02 in Calm   1.0 mph 42 % 0.00 in 139.00 W/m2
17:40 66.9 °F 43.1 °F 30.02 in Calm   2.0 mph 42 % 0.00 in 121.00 W/m2
17:45 66.7 °F 44.1 °F 30.02 in Calm   2.0 mph 44 % 0.00 in 114.00 W/m2
17:50 66.5 °F 43.9 °F 30.02 in Calm   2.0 mph 44 % 0.00 in 113.00 W/m2
17:55 66.3 °F 44.9 °F 30.02 in Calm   1.0 mph 46 % 0.00 in 104.00 W/m2
18:00 66.1 °F 45.3 °F 30.02 in Calm     47 % 0.00 in 95.00 W/m2
18:06 65.8 °F 45.6 °F 30.02 in Calm     48 % 0.00 in 84.00 W/m2
18:11 65.6 °F 46.5 °F 30.02 in Calm     50 % 0.00 in 72.00 W/m2
18:16 65.3 °F 46.2 °F 30.02 in Calm     50 % 0.00 in 63.00 W/m2
18:21 65.2 °F 46.6 °F 30.02 in Calm   1.0 mph 51 % 0.00 in 53.00 W/m2
18:26 64.9 °F 46.4 °F 30.02 in Calm     51 % 0.00 in 44.00 W/m2
18:31 64.7 °F 46.7 °F 30.02 in Calm     52 % 0.00 in 35.00 W/m2
18:36 64.5 °F 47.0 °F 30.02 in Calm     53 % 0.00 in 28.00 W/m2
18:41 64.2 °F 46.7 °F 30.02 in Calm     53 % 0.00 in 23.00 W/m2
18:46 63.8 °F 47.3 °F 30.02 in Calm     55 % 0.00 in 21.00 W/m2
18:51 63.4 °F 47.5 °F 30.02 in Calm     56 % 0.00 in 18.00 W/m2
18:56 62.9 °F 47.0 °F 30.02 in Calm     56 % 0.00 in 14.00 W/m2
19:01 62.4 °F 47.0 °F 30.02 in Calm     57 % 0.00 in 11.00 W/m2
19:06 61.6 °F 47.2 °F 30.02 in Calm     59 % 0.00 in 7.00 W/m2
19:12 60.9 °F 46.9 °F 30.03 in Calm     60 % 0.00 in 5.00 W/m2
19:17 60.1 °F 47.5 °F 30.03 in Calm     63 % 0.00 in 0.00 W/m2
19:22 59.3 °F 47.1 °F 30.03 in Calm     64 % 0.00 in 0.00 W/m2
19:27 58.7 °F 47.0 °F 30.03 in Calm     65 % 0.00 in 0.00 W/m2
19:32 58.2 °F 46.9 °F 30.03 in Calm     66 % 0.00 in 0.00 W/m2
19:37 57.7 °F 46.8 °F 30.03 in Calm     67 % 0.00 in 0.00 W/m2
19:42 57.2 °F 46.8 °F 30.03 in Calm     68 % 0.00 in 0.00 W/m2
19:47 56.9 °F 46.8 °F 30.03 in Calm     69 % 0.00 in 0.00 W/m2
19:52 56.7 °F 46.7 °F 30.03 in Calm     69 % 0.00 in 0.00 W/m2
19:57 56.6 °F 46.6 °F 30.03 in Calm     69 % 0.00 in 0.00 W/m2
20:02 56.4 °F 46.4 °F 30.03 in Calm     69 % 0.00 in 0.00 W/m2
20:07 56.3 °F 46.7 °F 30.03 in Calm     70 % 0.00 in 0.00 W/m2
20:12 56.2 °F 46.6 °F 30.03 in Calm     70 % 0.00 in 0.00 W/m2
20:17 56.1 °F 46.8 °F 30.03 in Calm     71 % 0.00 in 0.00 W/m2
20:22 56.0 °F 46.7 °F 30.03 in Calm     71 % 0.00 in 0.00 W/m2
20:27 55.9 °F 46.7 °F 30.03 in Calm     71 % 0.00 in 0.00 W/m2
20:32 55.9 °F 47.0 °F 30.03 in Calm     72 % 0.00 in 0.00 W/m2
20:37 55.9 °F 47.0 °F 30.03 in Calm     72 % 0.00 in 0.00 W/m2
20:42 55.8 °F 46.9 °F 30.03 in Calm     72 % 0.00 in 0.00 W/m2
20:47 55.8 °F 46.9 °F 30.03 in Calm     72 % 0.00 in 0.00 W/m2
20:52 55.8 °F 46.9 °F 30.03 in SE 4.0 mph 5.0 mph 72 % 0.00 in 0.00 W/m2
20:57 55.8 °F 46.9 °F 30.03 in ESE 5.0 mph 8.0 mph 72 % 0.00 in 0.00 W/m2
21:02 55.8 °F 46.9 °F 30.03 in Calm   5.0 mph 72 % 0.00 in 0.00 W/m2
21:07 55.8 °F 46.9 °F 30.03 in ESE 1.0 mph 6.0 mph 72 % 0.00 in 0.00 W/m2
21:12 55.8 °F 46.9 °F 30.03 in ESE 2.0 mph 5.0 mph 72 % 0.00 in 0.00 W/m2
21:17 55.7 °F 46.8 °F 30.04 in Calm   9.0 mph 72 % 0.00 in 0.00 W/m2
21:22 55.7 °F 46.5 °F 30.03 in ESE 1.0 mph 5.0 mph 71 % 0.00 in 0.00 W/m2
21:27 55.7 °F 46.5 °F 30.04 in ESE 6.0 mph 8.0 mph 71 % 0.00 in 0.00 W/m2
21:32 55.7 °F 46.5 °F 30.04 in ESE 2.0 mph 9.0 mph 71 % 0.00 in 0.00 W/m2
21:37 55.7 °F 46.5 °F 30.04 in ESE 1.0 mph 14.0 mph 71 % 0.00 in 0.00 W/m2
21:42 55.7 °F 46.5 °F 30.04 in ESE 6.0 mph 7.0 mph 71 % 0.00 in 0.00 W/m2
21:47 55.7 °F 46.5 °F 30.04 in Calm   7.0 mph 71 % 0.00 in 0.00 W/m2
21:52 55.8 °F 46.2 °F 30.04 in East 1.0 mph 6.0 mph 70 % 0.00 in 0.00 W/m2
21:57 55.8 °F 46.2 °F 30.04 in Calm   8.0 mph 70 % 0.00 in 0.00 W/m2
22:02 55.9 °F 46.3 °F 30.04 in Calm   9.0 mph 70 % 0.00 in 0.00 W/m2
22:07 55.9 °F 46.3 °F 30.04 in Calm   12.0 mph 70 % 0.00 in 0.00 W/m2
22:12 55.9 °F 46.3 °F 30.04 in ESE 2.0 mph 8.0 mph 70 % 0.00 in 0.00 W/m2
22:18 55.9 °F 46.3 °F 30.04 in Calm   13.0 mph 70 % 0.00 in 0.00 W/m2
22:23 55.9 °F 46.3 °F 30.04 in East 2.0 mph 5.0 mph 70 % 0.00 in 0.00 W/m2
22:28 55.8 °F 46.2 °F 30.04 in ESE 6.0 mph 7.0 mph 70 % 0.00 in 0.00 W/m2
22:33 55.8 °F 45.8 °F 30.04 in East 4.0 mph 16.0 mph 69 % 0.00 in 0.00 W/m2
22:38 55.7 °F 45.7 °F 30.04 in ESE 1.0 mph 6.0 mph 69 % 0.00 in 0.00 W/m2
22:43 55.7 °F 45.7 °F 30.05 in East 4.0 mph 7.0 mph 69 % 0.00 in 0.00 W/m2
22:48 55.6 °F 46.0 °F 30.05 in ESE 1.0 mph 7.0 mph 70 % 0.00 in 0.00 W/m2
22:53 55.6 °F 46.0 °F 30.05 in ESE 1.0 mph 5.0 mph 70 % 0.00 in 0.00 W/m2
22:58 55.5 °F 45.9 °F 30.05 in ESE 2.0 mph 7.0 mph 70 % 0.00 in 0.00 W/m2
23:03 55.5 °F 45.9 °F 30.05 in Calm   7.0 mph 70 % 0.00 in 0.00 W/m2
23:08 55.4 °F 45.8 °F 30.05 in ESE 1.0 mph 8.0 mph 70 % 0.00 in 0.00 W/m2
23:13 55.3 °F 46.1 °F 30.04 in ESE 4.0 mph 14.0 mph 71 % 0.00 in 0.00 W/m2
23:18 55.3 °F 46.1 °F 30.04 in ESE 1.0 mph 15.0 mph 71 % 0.00 in 0.00 W/m2
23:23 55.2 °F 46.0 °F 30.04 in ESE 4.0 mph 7.0 mph 71 % 0.00 in 0.00 W/m2
23:28 55.2 °F 46.0 °F 30.04 in Calm   8.0 mph 71 % 0.00 in 0.00 W/m2
23:33 55.2 °F 46.0 °F 30.04 in East 5.0 mph 7.0 mph 71 % 0.00 in 0.00 W/m2
23:38 55.2 °F 46.0 °F 30.04 in ESE 4.0 mph 14.0 mph 71 % 0.00 in 0.00 W/m2
23:43 55.1 °F 46.2 °F 30.04 in ESE 5.0 mph 15.0 mph 72 % 0.00 in 0.00 W/m2
23:48 55.1 °F 46.2 °F 30.04 in Calm   6.0 mph 72 % 0.00 in 0.00 W/m2
23:53 55.0 °F 46.2 °F 30.04 in Calm   5.0 mph 72 % 0.00 in 0.00 W/m2
23:58 54.9 °F 46.1 °F 30.04 in ESE 4.0 mph 6.0 mph 72 % 0.00 in 0.00 W/m2
Juneau County Weather
Compliments of Weather Underground - 4.5 mb
 WU-history PHP script courtesy of   Juneau County Weather.
powered by Cumulus v1.9.3 (1059)
Ambient Weather VWS v14.00
Top Contact Website Map Copyright © 2007 - 2018 Foresthillweather.com Never base important decisions on this or any weather information obtained from the Internet